Wind_Speed
11 12 12 13 13 12 12 11 10 10 9 8 7 6 6 6 6 6 6 5 5 5 5 5 5 5 6 6 6 6 6 6 6 6 6 6 6 6 6 6 5 5 5
11 12 12 13 14 14 13 12 11 10 10 10 8 7 7 7 6 6 6 7 6 7 7 6 7 7 7 7 7 8 8 8 8 8 8 8 8 8 8 8 7 7 7
11 11 12 13 13 13 13 12 12 11 10 10 10 9 9 8 8 8 7 8 8 8 7 7 7 8 8 9 10 10 10 10 10 10 10 11 11 10 10 10 10 10 10
11 11 12 13 14 14 14 13 13 12 11 11 11 10 10 9 9 7 7 7 8 8 8 8 9 9 10 10 10 11 11 11 12 12 13 13 13 13 13 13 13 13 12
11 12 13 14 14 14 14 13 13 12 12 12 12 10 9 9 8 7 7 7 7 8 8 8 9 10 10 11 12 12 12 12 13 13 14 14 15 15 15 15 15 15 15
12 12 13 14 15 15 15 14 14 13 13 12 11 10 9 8 8 8 8 9 9 9 9 10 10 11 11 12 12 13 13 13 14 15 16 16 16 16 17 17 17 17 18
12 12 13 14 15 15 15 15 14 13 13 12 11 10 9 9 9 9 9 9 9 10 10 11 12 12 12 12 13 14 15 15 15 16 17 17 17 18 18 19 19 19 19
12 12 14 14 15 15 15 15 14 13 13 12 11 10 10 10 9 10 10 10 11 12 12 13 13 14 14 14 15 16 17 17 17 17 17 17 18 19 19 20 21 20 21
12 13 14 15 16 16 16 15 15 14 14 13 12 11 10 10 10 10 11 12 12 13 14 14 14 14 15 15 16 16 17 18 18 18 18 18 19 20 21 22 22 23 22
12 13 14 15 15 14 16 16 15 14 14 13 11 11 11 11 12 12 12 12 13 13 14 14 14 15 15 16 16 17 17 18 19 19 20 20 20 20 21 22 22 22 22
14 13 14 14 15 16 16 16 15 14 14 13 13 12 12 13 13 13 13 13 13 13 13 14 15 16 16 17 17 18 18 19 20 20 20 21 21 21 21 22 22 22 22
13 14 15 15 15 16 16 16 15 15 14 14 14 14 14 14 14 14 14 14 14 14 14 15 16 17 17 18 18 19 19 20 20 21 21 22 22 22 22 23 24 24 24
15 15 15 15 15 16 16 16 16 15 15 15 15 15 15 14 14 14 14 14 14 15 16 16 17 17 18 18 19 19 20 20 21 22 22 22 23 23 23 23 24 24 25
16 15 15 15 15 16 16 16 16 16 15 15 16 16 15 15 15 15 15 15 16 16 17 17 18 18 18 18 19 20 21 22 22 23 23 23 24 24 24 25 25 25 26
17 16 15 14 15 16 17 17 17 16 16 16 17 17 16 16 16 16 16 16 16 16 17 18 19 19 19 19 20 20 22 23 24 24 24 24 25 24 24 25 25 26 27
17 15 14 15 16 16 17 18 17 17 17 17 18 17 16 16 16 16 17 17 17 17 18 19 19 20 20 20 21 22 23 23 23 23 24 24 24 24 25 26 26 26 27
16 16 16 16 17 17 17 17 17 17 17 18 17 17 17 17 17 18 18 18 19 19 19 19 19 20 21 21 22 23 23 23 23 23 24 24 25 25 26 26 26 27 27
18 18 18 18 18 18 18 18 17 17 18 18 18 18 19 19 19 19 19 19 19 19 20 20 21 21 22 22 23 23 24 24 23 23 23 24 24 24 25 26 26 26 26
20 19 19 19 19 19 19 19 18 18 18 19 19 19 20 20 20 20 20 20 20 20 21 21 22 23 23 23 23 23 23 23 23 23 23 23 23 24 24 25 25 25 26
21 21 20 20 20 20 20 20 19 20 20 20 20 21 21 21 21 21 21 21 21 22 22 23 23 23 24 24 24 23 23 23 22 23 23 23 22 23 24 24 25 25 25
22 22 22 21 21 21 21 21 21 21 22 21 21 22 22 21 21 22 22 23 22 23 23 23 24 24 24 24 24 23 23 23 23 23 24 24 24 24 24 25 25 25 26
23 23 23 23 23 22 22 22 23 22 22 22 22 22 22 22 22 22 23 23 23 23 24 24 24 24 25 24 24 24 23 23 24 25 24 24 24 24 24 25 26 27 28
25 25 24 24 24 23 23 23 23 23 23 24 24 23 23 23 23 23 23 24 24 24 24 24 24 25 25 25 24 24 24 24 24 25 25 25 25 26 27 27 28 29 29
26 26 25 25 25 25 25 24 24 24 24 25 25 25 24 24 24 23 24 24 24 24 25 25 25 25 25 25 24 24 24 24 24 24 25 25 26 27 28 29 30 30 31
27 27 26 26 26 26 26 26 25 25 25 25 26 25 24 24 24 24 24 24 24 25 25 25 26 26 25 25 25 25 25 24 24 25 26 26 27 28 29 29 30 31 31
28 28 28 27 27 27 27 27 26 26 27 27 27 26 25 25 24 24 24 24 25 25 26 26 26 25 25 25 25 25 26 26 26 27 27 28 29 29 29 29 29 30 31
Wind_Direction
352 354 354 357 1 360 358 356 354 353 351 346 334 316 309 309 299 287 276 271 271 277 275 273 272 272 268 263 258 262 265 266 267 268 271 276 279 279 281 281 278 282 283
347 353 352 353 355 354 354 354 349 350 347 343 335 324 313 304 299 292 278 268 267 272 271 266 266 269 269 268 265 265 266 266 267 268 270 274 279 280 282 280 274 276 279
341 344 346 349 350 349 348 348 347 345 343 339 332 327 319 310 299 292 282 270 264 267 267 267 270 270 269 270 267 268 269 270 269 269 271 274 276 276 276 277 273 274 277
337 340 342 344 346 345 343 342 340 340 338 333 326 320 314 308 297 289 282 276 269 267 269 271 271 273 277 277 275 273 273 273 274 273 272 274 275 275 274 275 274 275 276
332 335 337 339 340 340 339 335 334 331 330 331 327 318 312 306 296 291 289 288 285 278 275 276 277 281 281 279 277 278 279 277 276 275 274 273 273 272 274 275 275 275 274
324 330 333 334 335 334 336 333 328 326 325 327 324 319 313 305 299 295 290 289 289 286 285 283 283 285 284 280 279 279 280 282 279 276 275 276 274 273 273 275 275 274 273
317 325 329 331 333 331 331 331 329 328 328 327 324 319 315 309 300 296 289 290 293 291 291 289 285 284 285 282 282 282 282 283 283 280 279 277 278 278 278 277 276 274 273
307 315 323 329 329 330 329 330 329 329 330 327 321 315 313 310 304 299 295 293 292 290 289 290 288 286 285 284 286 285 282 282 284 283 282 281 281 280 280 279 278 277 276
308 315 317 321 325 328 329 328 326 325 326 325 322 317 317 314 312 308 302 297 296 292 289 290 289 289 289 288 289 289 285 284 286 286 286 284 284 283 283 281 280 280 277
303 310 314 316 324 329 329 328 325 321 321 322 321 320 318 317 316 310 306 302 300 296 294 294 293 294 293 294 296 293 289 289 289 288 288 288 288 287 287 287 286 286 283
296 306 314 317 323 327 327 328 329 325 322 322 323 323 321 316 315 310 308 305 303 303 301 298 295 295 294 293 294 292 290 290 291 291 291 289 288 289 289 288 286 285 287
294 300 306 311 319 324 326 326 327 327 325 321 321 319 320 319 317 311 309 306 304 306 305 302 299 297 297 296 294 292 292 293 293 291 290 290 290 290 288 288 287 286 286
294 298 301 305 311 317 321 323 325 325 324 323 324 323 321 320 319 317 312 310 307 306 303 302 301 298 296 296 294 292 294 294 293 292 291 291 291 291 290 290 288 286 285
289 293 297 301 307 313 317 319 318 320 322 322 322 324 321 320 320 319 316 311 308 306 304 304 303 301 300 299 297 295 293 293 291 291 292 292 292 291 290 290 288 287 287
284 287 292 296 302 309 315 317 316 318 320 321 321 321 320 319 318 318 319 315 313 313 310 307 307 306 304 301 300 300 298 295 292 292 292 292 291 291 293 292 290 289 288
279 284 287 291 297 302 309 314 314 316 315 317 319 318 316 316 316 316 317 319 319 317 315 314 312 309 306 305 304 302 301 299 297 296 295 294 294 295 295 295 294 293 289
277 282 283 289 295 299 305 309 310 312 313 315 316 315 314 315 315 316 316 316 316 315 314 313 314 312 309 307 306 305 304 303 301 299 297 296 296 296 297 296 295 294 291
276 280 282 287 293 297 301 305 307 310 311 312 313 313 314 314 312 313 314 313 313 313 313 314 314 313 312 310 308 306 305 304 303 302 302 301 298 298 299 298 298 296 293
271 276 280 284 289 294 297 300 303 306 309 311 311 312 312 312 312 311 312 311 310 311 313 313 314 313 312 311 310 310 309 308 307 305 304 303 301 299 300 300 299 298 295
270 273 277 282 286 291 295 296 298 301 305 307 309 310 310 311 311 311 310 310 311 312 313 312 313 314 314 314 312 310 308 308 307 306 305 304 303 302 301 301 301 301 299
269 271 275 279 284 288 291 295 297 299 303 305 307 309 310 311 313 314 313 313 312 312 312 312 313 314 313 312 311 308 307 306 305 305 305 303 302 302 303 303 302 302 301
268 271 274 277 281 285 288 291 295 297 300 303 304 306 306 308 310 312 312 313 313 312 312 313 313 313 313 312 311 310 309 308 307 306 305 304 304 303 304 304 304 304 303
268 271 274 276 279 282 285 288 291 293 297 299 301 302 304 305 308 310 312 312 312 312 312 313 313 313 313 312 311 311 311 309 308 308 306 305 305 305 305 305 305 305 304
267 270 272 274 277 280 283 285 287 289 292 295 298 300 301 302 305 307 310 311 312 312 311 311 312 312 312 312 311 311 310 309 309 310 308 308 307 306 306 306 305 305 305
266 270 271 273 275 277 281 282 285 288 291 293 296 298 299 301 302 305 308 309 309 310 310 310 310 310 310 310 310 310 311 310 309 309 309 307 307 307 306 306 306 307 307
266 269 270 272 273 276 279 281 283 286 288 291 294 296 297 299 302 305 306 307 307 308 308 309 309 309 309 309 309 309 310 310 309 311 310 310 310 310 309 309 309 309 308
Height
5917 5916 5915 5913 5912 5910 5909 5907 5906 5905 5904 5903 5903 5902 5902 5902 5902 5901 5901 5902 5902 5902 5903 5904 5904 5904 5905 5905 5906 5906 5906 5907 5907 5907 5907 5907 5907 5907 5906 5906 5906 5906 5906
5917 5916 5915 5913 5912 5910 5909 5907 5906 5905 5904 5903 5902 5901 5901 5901 5900 5900 5900 5901 5901 5901 5902 5902 5903 5903 5904 5904 5904 5905 5905 5905 5905 5906 5906 5906 5906 5905 5904 5904 5904 5904 5904
5917 5916 5915 5913 5912 5910 5909 5907 5905 5904 5903 5902 5901 5901 5900 5899 5899 5899 5898 5899 5899 5900 5900 5901 5901 5901 5902 5902 5903 5903 5903 5904 5904 5904 5904 5904 5904 5904 5903 5903 5902 5902 5902
5916 5915 5914 5913 5911 5910 5908 5906 5905 5904 5902 5902 5900 5900 5899 5898 5898 5897 5897 5897 5897 5898 5899 5899 5899 5899 5900 5900 5900 5901 5901 5901 5901 5902 5902 5902 5901 5901 5901 5900 5900 5900 5899
5915 5914 5913 5912 5910 5909 5907 5906 5904 5903 5901 5900 5899 5898 5897 5897 5896 5896 5896 5896 5896 5897 5897 5897 5898 5898 5898 5898 5898 5899 5898 5898 5898 5899 5898 5898 5898 5897 5897 5897 5897 5897 5896
5915 5914 5913 5911 5910 5908 5906 5904 5903 5901 5900 5898 5897 5896 5896 5895 5895 5895 5895 5895 5895 5895 5896 5896 5896 5896 5896 5896 5896 5896 5896 5895 5895 5895 5895 5894 5894 5894 5894 5894 5893 5893 5893
5914 5913 5912 5910 5909 5907 5905 5903 5901 5900 5898 5897 5896 5895 5894 5894 5894 5894 5894 5894 5894 5894 5894 5894 5894 5893 5893 5893 5893 5893 5892 5892 5892 5891 5891 5891 5890 5890 5890 5889 5889 5889 5888
5912 5911 5911 5909 5908 5906 5904 5902 5900 5898 5897 5896 5895 5894 5893 5893 5892 5892 5892 5892 5892 5892 5891 5891 5891 5891 5890 5890 5890 5889 5889 5888 5888 5887 5887 5887 5886 5886 5886 5885 5884 5884 5883
5912 5910 5909 5907 5907 5905 5903 5901 5899 5898 5896 5895 5893 5892 5891 5891 5890 5890 5890 5889 5889 5889 5888 5888 5888 5888 5887 5886 5886 5885 5885 5884 5884 5883 5883 5882 5882 5881 5881 5880 5879 5879 5878
5911 5910 5908 5906 5905 5903 5902 5900 5898 5897 5895 5893 5892 5891 5890 5889 5888 5888 5887 5887 5886 5886 5885 5885 5885 5884 5884 5883 5882 5881 5881 5880 5880 5879 5878 5877 5877 5876 5875 5874 5873 5872 5872
5908 5907 5907 5905 5904 5902 5901 5899 5897 5896 5894 5892 5891 5889 5888 5887 5886 5885 5885 5884 5884 5883 5882 5882 5881 5881 5880 5879 5879 5878 5877 5876 5875 5874 5873 5872 5871 5870 5870 5869 5868 5867 5866
5905 5905 5905 5904 5903 5901 5900 5898 5896 5895 5893 5891 5890 5888 5887 5886 5885 5883 5882 5882 5881 5880 5880 5879 5878 5877 5876 5875 5875 5874 5872 5871 5870 5869 5868 5867 5866 5865 5864 5863 5862 5861 5860
5904 5904 5903 5902 5901 5900 5898 5897 5895 5893 5892 5890 5888 5887 5885 5884 5883 5881 5880 5879 5878 5878 5877 5876 5875 5874 5873 5872 5871 5869 5868 5867 5865 5864 5863 5862 5861 5859 5858 5857 5856 5854 5853
5902 5901 5901 5900 5899 5898 5896 5895 5893 5891 5890 5888 5887 5885 5884 5882 5881 5880 5878 5877 5876 5875 5874 5873 5871 5870 5869 5868 5866 5865 5864 5862 5861 5859 5858 5856 5855 5854 5852 5851 5849 5848 5847
5899 5899 5898 5898 5897 5896 5894 5892 5891 5889 5888 5886 5885 5883 5882 5880 5879 5878 5876 5875 5873 5871 5870 5869 5868 5866 5865 5863 5862 5860 5858 5857 5855 5853 5852 5850 5849 5847 5846 5844 5843 5841 5840
5896 5896 5896 5895 5894 5893 5892 5890 5889 5887 5886 5884 5883 5881 5880 5878 5877 5875 5874 5872 5870 5869 5867 5865 5864 5862 5860 5858 5856 5855 5853 5851 5849 5848 5846 5844 5843 5841 5839 5838 5836 5834 5832
5892 5893 5893 5892 5892 5891 5889 5888 5887 5885 5884 5882 5881 5879 5877 5876 5874 5873 5871 5869 5868 5866 5864 5862 5860 5858 5856 5854 5852 5850 5847 5846 5843 5841 5840 5838 5836 5835 5833 5831 5828 5826 5824
5890 5890 5889 5889 5889 5888 5887 5886 5884 5883 5882 5880 5878 5876 5875 5873 5872 5870 5868 5866 5864 5863 5861 5858 5856 5854 5852 5849 5847 5845 5842 5840 5838 5836 5834 5832 5830 5828 5826 5824 5822 5819 5817
5886 5886 5886 5886 5885 5885 5884 5882 5881 5880 5879 5877 5875 5874 5872 5870 5868 5867 5865 5863 5861 5859 5857 5854 5852 5850 5847 5845 5842 5840 5837 5835 5832 5830 5828 5826 5824 5822 5820 5818 5816 5814 5811
5881 5882 5882 5882 5882 5881 5880 5879 5878 5877 5875 5874 5872 5870 5869 5867 5865 5863 5861 5859 5857 5855 5852 5850 5848 5845 5842 5840 5837 5835 5832 5830 5828 5825 5823 5820 5818 5816 5814 5812 5810 5808 5805
5877 5877 5877 5877 5877 5877 5876 5875 5874 5873 5871 5870 5868 5866 5865 5863 5861 5859 5857 5854 5852 5850 5848 5845 5843 5840 5838 5835 5832 5830 5827 5825 5822 5820 5818 5815 5813 5811 5808 5806 5804 5801 5799
5872 5872 5872 5873 5872 5872 5871 5870 5869 5868 5867 5865 5864 5862 5861 5859 5857 5855 5852 5850 5848 5845 5843 5841 5838 5835 5833 5830 5827 5825 5822 5819 5817 5815 5812 5810 5808 5805 5803 5800 5798 5795 5792
5866 5867 5867 5867 5867 5867 5866 5865 5865 5863 5862 5861 5859 5858 5856 5854 5852 5850 5848 5845 5843 5840 5838 5835 5833 5830 5828 5825 5822 5820 5817 5814 5812 5809 5807 5804 5802 5799 5797 5794 5791 5788 5785
5861 5861 5861 5862 5862 5861 5861 5860 5859 5858 5857 5856 5854 5853 5851 5849 5847 5845 5843 5840 5838 5835 5833 5831 5828 5825 5823 5820 5817 5815 5812 5809 5807 5804 5801 5798 5796 5793 5790 5787 5784 5781 5777
5855 5855 5855 5856 5856 5855 5855 5855 5854 5853 5852 5850 5849 5847 5846 5844 5842 5840 5837 5835 5833 5830 5828 5825 5823 5820 5818 5815 5812 5810 5807 5804 5801 5798 5796 5793 5790 5787 5783 5780 5776 5773 5769
5848 5849 5849 5849 5849 5849 5849 5849 5848 5847 5846 5845 5843 5842 5840 5838 5836 5834 5832 5830 5828 5825 5823 5820 5818 5815 5812 5809 5807 5804 5801 5798 5796 5793 5790 5786 5783 5780 5776 5772 5769 5765 5762